TimePST,TemperatureF,Dew PointF,Humidity,Sea Level PressureIn,VisibilityMPH,Wind Direction,Wind SpeedMPH,Gust SpeedMPH,PrecipitationIn,Events,Conditions,WindDirDegrees,DateUTC
12:55 AM,42.1,35.1,76,30.15,10.0,ENE,4.6,-,N/A,,Clear,70,2013-02-23 08:55:00
1:55 AM,42.1,35.1,76,30.13,10.0,East,6.9,-,N/A,,Partly Cloudy,80,2013-02-23 09:55:00
2:55 AM,41.0,34.0,76,30.12,10.0,ENE,5.8,-,N/A,,Partly Cloudy,70,2013-02-23 10:55:00
3:55 AM,41.0,34.0,76,30.10,10.0,ENE,6.9,-,N/A,,Partly Cloudy,60,2013-02-23 11:55:00
4:55 AM,41.0,34.0,76,30.09,10.0,East,6.9,-,N/A,,Partly Cloudy,90,2013-02-23 12:55:00
5:55 AM,42.1,34.0,73,30.11,10.0,ENE,5.8,-,N/A,,Partly Cloudy,60,2013-02-23 13:55:00
6:55 AM,42.1,35.1,76,30.10,10.0,NE,6.9,-,N/A,,Partly Cloudy,50,2013-02-23 14:55:00
7:55 AM,52.0,37.9,59,30.10,10.0,East,3.5,-,N/A,,Clear,100,2013-02-23 15:55:00
8:55 AM,57.0,36.0,45,30.10,10.0,Calm,Calm,-,N/A,,Clear,0,2013-02-23 16:55:00
9:55 AM,60.1,36.0,41,30.10,10.0,Variable,3.5,-,N/A,,Clear,0,2013-02-23 17:55:00
10:55 AM,63.0,37.0,38,30.08,10.0,Variable,3.5,-,N/A,,Partly Cloudy,0,2013-02-23 18:55:00
11:55 AM,63.0,44.1,50,30.05,10.0,West,8.1,-,N/A,,Partly Cloudy,280,2013-02-23 19:55:00
12:55 PM,64.0,34.0,33,30.02,10.0,WSW,8.1,-,N/A,,Partly Cloudy,250,2013-02-23 20:55:00
1:55 PM,63.0,36.0,37,29.99,10.0,West,6.9,-,N/A,,Partly Cloudy,270,2013-02-23 21:55:00
2:55 PM,62.1,39.0,43,29.96,10.0,West,5.8,-,N/A,,Clear,270,2013-02-23 22:55:00
3:55 PM,61.0,43.0,52,29.95,10.0,West,9.2,-,N/A,,Partly Cloudy,260,2013-02-23 23:55:00
4:55 PM,57.0,45.0,64,29.95,10.0,West,9.2,-,N/A,,Partly Cloudy,270,2013-02-24 00:55:00
5:55 PM,52.0,45.0,77,29.95,10.0,WSW,3.5,-,N/A,,Partly Cloudy,240,2013-02-24 01:55:00
6:55 PM,50.0,45.0,83,29.97,10.0,Calm,Calm,-,N/A,,Mostly Cloudy,0,2013-02-24 02:55:00
7:17 PM,51.8,46.4,82,29.97,10.0,Calm,Calm,-,N/A,,Mostly Cloudy,0,2013-02-24 03:17:00
7:55 PM,53.1,48.0,83,29.96,10.0,SSE,3.5,-,N/A,,Overcast,160,2013-02-24 03:55:00
8:55 PM,54.0,46.9,77,29.97,10.0,South,3.5,-,N/A,,Overcast,170,2013-02-24 04:55:00
9:55 PM,54.0,46.9,77,29.98,10.0,Calm,Calm,-,N/A,,Overcast,0,2013-02-24 05:55:00
10:55 PM,53.1,45.0,74,29.97,10.0,SE,5.8,-,N/A,,Mostly Cloudy,130,2013-02-24 06:55:00
11:03 PM,51.8,44.6,76,29.99,10.0,East,4.6,-,N/A,,Mostly Cloudy,100,2013-02-24 07:03:00
11:55 PM,48.0,42.1,80,29.98,10.0,East,3.5,-,N/A,,Clear,80,2013-02-24 07:55:00